Theta_e
339 336 337 338 336 334 332 332 332 332 333 334 334 335 335 336 336 337 337 337 336 335 334 334 335 334 335 337 337 336 336 335 334 333 332 332 331 330 329 330 331 332 332 331 332 332 332 332 332 332 332 332 331 331 332 332 333 332 332 331 330 329 329 329 329 330 329 329 329 328 329 329 329 329 328 329 330 331 332 332 332 332 331 331 330
336 335 337 337 334 332 330 330 331 332 332 333 333 334 334 335 336 336 336 337 336 336 336 336 335 335 336 337 337 336 336 335 334 332 331 330 331 330 329 329 330 331 331 330 331 332 331 331 331 331 331 331 331 331 332 332 332 332 331 331 330 329 329 328 330 330 330 330 329 328 329 329 328 328 328 328 329 330 331 331 331 331 331 331 330
335 335 337 336 333 331 330 330 331 332 331 332 332 333 334 334 335 335 335 336 335 335 335 335 335 336 337 336 336 336 335 335 333 331 330 329 329 329 328 329 329 329 330 329 330 330 330 331 331 331 330 331 331 331 331 331 332 332 332 331 330 329 329 329 330 330 330 329 329 330 331 330 329 327 327 328 328 328 329 329 330 330 330 330 330
335 337 337 336 333 331 331 330 330 331 331 331 332 333 332 332 334 334 334 335 335 335 335 335 335 335 335 335 334 333 333 333 332 331 330 329 328 327 326 327 328 329 329 328 328 328 328 329 330 330 330 331 331 330 331 330 331 332 331 331 329 329 330 330 331 331 330 329 330 330 328 329 332 328 325 326 327 327 327 327 328 329 329 330 330
335 338 337 336 334 332 331 329 329 330 330 332 333 332 332 332 333 333 334 336 336 335 335 335 335 333 332 332 331 330 330 330 330 330 329 329 328 327 327 327 328 329 328 327 327 326 326 327 328 329 329 330 330 330 331 331 330 330 331 330 329 329 330 331 332 331 330 328 329 329 328 331 334 328 325 326 326 327 327 327 327 328 329 329 329
335 337 336 336 334 332 330 329 329 329 330 332 332 332 332 332 332 333 334 336 336 334 334 334 334 331 330 330 329 327 328 328 328 328 327 328 328 327 326 326 328 329 328 327 327 326 326 327 327 329 329 330 330 330 330 331 330 330 330 330 329 329 330 330 331 330 329 328 328 329 329 331 330 327 327 328 326 326 327 327 327 328 328 328 328
336 336 335 335 334 332 330 330 330 330 331 331 332 331 332 332 332 333 335 336 335 334 334 333 332 330 329 329 327 326 326 326 327 327 327 327 327 326 325 325 326 326 325 325 326 326 327 327 327 328 329 329 329 329 329 330 330 329 329 329 330 330 329 330 330 330 329 328 329 329 328 328 327 327 328 329 327 327 327 327 328 327 327 327 327
336 335 335 334 334 332 331 331 330 331 332 332 332 332 332 333 333 333 334 333 334 334 333 331 330 329 328 328 327 325 325 326 328 328 326 326 327 326 325 325 324 324 324 325 326 326 327 327 327 328 328 327 327 328 328 328 328 329 328 329 329 329 329 329 330 330 329 328 329 329 328 327 327 327 326 327 327 327 327 327 327 327 327 327 327
335 335 334 334 333 333 332 332 331 331 333 333 333 333 333 333 333 332 332 331 333 333 331 330 329 328 328 327 325 324 325 327 328 327 326 326 327 326 325 324 324 324 325 326 325 325 326 326 326 326 326 326 326 327 327 327 328 328 328 328 328 328 329 329 329 329 328 328 329 329 328 327 327 327 326 325 325 327 328 328 327 327 327 327 326
334 333 333 332 333 334 332 332 331 331 333 333 333 333 333 333 332 332 331 331 332 331 329 328 328 328 327 325 324 324 325 325 326 326 325 325 325 325 325 324 324 325 326 326 325 323 324 325 325 326 326 325 326 327 327 327 328 328 328 328 328 327 328 328 328 328 328 328 329 329 328 327 326 326 325 325 324 325 327 327 326 326 327 326 326
333 331 330 332 333 333 332 332 331 331 332 333 334 334 333 333 333 332 331 331 331 330 329 327 327 327 325 324 323 323 323 323 324 324 323 324 325 325 324 324 325 326 325 324 324 323 323 324 325 325 325 324 325 327 328 328 328 328 328 327 327 327 327 327 327 328 328 328 328 328 328 327 327 326 325 325 324 323 325 326 325 325 326 326 325
331 330 330 331 332 332 332 332 331 330 331 332 334 334 334 334 333 333 332 331 331 330 328 327 326 325 323 323 323 323 323 323 324 322 322 324 325 324 324 324 324 325 325 324 323 323 323 324 325 324 324 324 325 326 327 328 328 328 328 327 327 327 327 327 327 327 327 327 327 327 327 327 327 326 326 325 324 324 325 324 324 325 325 325 324
330 330 331 332 332 331 331 332 331 331 331 333 334 334 334 334 333 333 333 331 331 330 328 326 325 323 322 324 323 323 323 323 322 322 323 324 325 324 324 323 323 324 324 324 323 322 322 323 324 324 324 323 324 325 325 326 326 326 326 325 325 325 325 325 326 326 326 325 326 326 326 326 327 326 325 325 325 325 324 324 324 325 324 324 324
329 329 331 332 332 331 330 332 332 332 332 333 333 333 333 332 331 332 332 331 330 330 328 326 325 325 325 325 324 323 323 322 322 323 325 325 325 324 324 324 323 322 323 323 322 322 321 321 322 323 322 322 323 323 323 324 325 325 322 319 318 319 320 321 320 321 321 322 324 326 325 326 326 326 325 325 325 325 324 324 323 323 324 324 324
328 329 331 331 331 330 331 332 333 333 333 333 333 333 331 330 330 330 330 330 330 330 328 326 326 328 327 325 324 324 323 322 322 324 324 324 324 324 324 324 323 322 322 321 321 322 322 320 319 320 320 320 320 321 321 322 323 323 319 316 316 316 315 316 316 316 317 318 320 322 324 325 326 326 325 324 324 324 324 324 323 322 323 322 320
328 329 330 331 331 331 331 332 333 333 332 332 332 331 330 329 330 329 329 329 329 328 327 326 328 328 327 325 324 323 322 321 323 324 323 323 324 324 324 322 320 321 321 321 320 320 321 320 318 318 319 319 319 319 318 318 320 320 317 315 316 315 315 315 315 315 315 315 316 316 319 322 324 326 324 323 322 322 323 323 322 322 322 318 316
329 329 330 330 330 331 331 332 333 332 332 332 330 329 329 329 329 328 328 328 327 326 327 327 329 328 325 324 323 322 321 321 322 324 323 324 325 324 323 321 321 322 322 321 320 319 320 320 318 317 318 318 317 316 315 315 316 317 316 316 316 315 314 314 314 314 314 314 314 313 313 315 319 322 323 323 322 322 322 322 322 322 319 317 317
329 329 329 330 330 330 330 331 332 332 331 331 330 329 329 329 329 328 327 327 326 326 326 328 329 326 323 323 322 321 321 321 322 323 324 325 325 323 322 321 321 320 320 320 320 318 318 319 318 316 316 316 315 315 315 315 315 315 315 316 316 315 315 314 313 313 312 313 314 313 313 313 315 318 320 321 321 321 322 321 321 321 319 316 317
330 330 329 329 328 329 330 331 332 332 331 331 330 330 329 328 328 328 328 327 326 326 327 328 329 325 322 322 322 321 322 322 323 323 323 324 324 323 321 320 319 318 317 317 317 317 317 318 318 317 316 315 314 315 316 315 314 313 314 315 315 314 314 313 313 312 311 311 312 313 313 313 314 315 315 316 316 318 319 320 320 320 319 317 316
330 329 330 328 327 329 330 330 331 331 331 331 330 331 330 329 328 328 329 328 327 328 328 329 329 325 323 323 322 322 323 323 323 323 322 323 323 322 319 319 318 316 314 315 315 316 317 317 317 316 315 314 314 314 314 314 313 312 312 313 313 313 313 313 314 314 313 312 312 313 313 312 313 313 313 314 314 315 317 318 319 319 317 316 316
329 328 327 326 326 328 329 329 330 330 330 330 330 330 330 330 330 329 329 329 329 329 329 330 329 325 323 323 322 323 324 324 323 322 322 323 322 321 319 318 317 315 314 315 315 316 316 316 316 316 315 313 313 314 314 314 313 313 313 313 313 313 313 313 314 315 314 313 312 312 313 312 312 313 313 313 314 315 315 316 318 317 315 315 314
328 327 327 326 326 327 328 328 328 328 328 327 327 328 328 328 329 329 330 330 330 330 329 329 328 326 325 324 323 323 323 323 322 322 322 322 322 321 319 318 316 314 315 315 314 314 315 316 316 315 315 314 314 315 315 315 314 314 314 314 315 314 313 313 314 314 314 314 313 313 313 313 313 313 314 314 314 315 315 315 315 315 314 313 312
328 327 327 326 326 326 326 326 325 326 325 325 325 324 325 325 326 328 329 328 326 326 325 326 326 325 325 324 323 323 323 322 322 321 322 322 321 320 319 318 316 315 316 316 315 314 315 316 316 315 315 314 314 315 315 315 314 315 315 315 315 315 314 313 313 313 313 313 313 313 315 315 314 314 314 314 314 315 315 313 312 312 312 311 310
326 326 325 325 325 325 325 324 324 324 324 324 324 323 323 324 323 326 328 327 325 324 323 324 324 324 324 323 323 322 322 321 321 321 321 321 321 320 319 318 317 316 316 317 316 316 316 316 315 316 315 315 315 315 315 314 315 315 314 314 314 314 314 314 313 313 313 312 312 312 314 315 315 315 315 315 315 314 314 313 312 311 311 311 309
325 325 324 324 324 324 324 324 323 323 323 323 323 322 323 323 322 324 325 325 325 325 324 324 325 325 324 323 323 322 321 321 321 320 320 321 321 320 319 319 317 317 316 317 318 317 316 316 316 316 316 316 317 316 315 315 316 316 314 313 314 314 313 313 313 313 314 314 313 313 313 314 315 315 315 315 315 314 314 314 313 312 312 311 309
324 323 323 322 323 322 323 323 322 322 322 323 323 322 323 323 323 323 323 324 324 324 325 324 324 325 325 324 323 322 321 321 321 320 320 321 321 320 319 319 318 317 316 317 318 318 317 317 317 317 316 317 317 317 317 315 315 316 315 314 315 315 315 315 314 314 316 316 317 316 315 314 314 314 315 315 315 315 315 314 314 313 312 310 309
322 322 322 322 322 321 322 322 322 322 322 323 323 323 324 323 323 323 323 323 324 324 324 324 323 324 325 325 323 322 322 322 321 321 321 320 320 320 319 318 318 318 317 317 318 318 318 318 318 318 317 317 318 318 318 316 315 316 317 316 316 316 318 318 316 315 316 317 317 318 317 317 316 314 315 315 315 315 315 315 314 314 313 311 311
315 316 317 317 317 316 316 315 316 319 321 322 322 322 323 323 322 322 323 323 324 324 324 323 323 323 324 324 323 323 323 322 322 322 321 321 320 320 319 318 318 319 317 317 318 318 318 318 318 317 317 318 318 318 319 318 317 317 318 318 318 318 319 319 319 318 317 318 318 318 317 318 317 316 315 316 315 315 315 315 315 314 314 314 313
310 310 311 311 310 310 309 308 308 311 315 319 321 322 322 322 322 322 322 322 323 324 324 323 323 323 323 323 323 323 322 321 322 322 321 321 321 320 319 319 320 321 318 317 318 318 317 317 317 317 317 317 318 317 318 319 319 319 319 319 319 319 319 319 320 320 319 319 319 319 318 318 318 317 316 316 316 314 314 314 315 314 314 314 314
307 307 307 306 306 306 305 305 305 306 308 313 318 321 321 321 322 322 322 322 322 323 323 322 323 323 323 322 322 323 322 321 322 321 320 320 321 321 321 320 321 322 320 319 319 318 317 316 317 317 317 317 318 318 318 318 319 319 320 320 321 320 320 320 320 320 320 320 320 320 319 319 319 318 318 318 317 316 315 314 314 314 313 313 313
305 305 304 304 304 304 304 304 304 305 305 307 312 318 321 322 322 321 322 322 322 322 321 321 322 322 322 322 323 323 323 322 322 322 320 319 320 321 322 322 321 321 321 320 320 318 317 317 317 317 317 317 318 318 318 318 319 319 320 321 321 321 321 321 321 321 321 321 320 320 320 320 319 319 319 319 319 317 316 316 315 313 312 312 312
303 302 302 302 303 303 303 303 303 304 305 305 308 313 317 318 316 315 317 319 319 319 319 320 321 321 321 322 322 323 323 323 323 323 322 320 320 320 321 322 323 323 322 322 321 320 319 319 318 318 319 319 319 318 318 319 320 320 320 321 321 321 321 321 321 321 321 320 320 319 320 320 320 320 319 319 319 318 317 317 316 314 313 312 312
302 302 301 301 301 301 302 302 303 303 304 305 306 308 309 309 307 307 309 310 309 309 310 311 314 318 320 321 321 322 322 323 322 322 322 322 321 320 322 323 323 323 323 323 322 322 321 320 320 319 319 319 319 319 319 319 319 319 319 320 320 320 320 320 320 321 321 321 320 319 319 320 320 320 320 320 319 318 317 317 316 315 314 314 313
302 301 301 301 301 301 301 302 302 302 303 304 305 305 305 305 305 305 305 305 304 304 304 304 306 310 313 315 317 319 321 321 321 320 321 321 321 321 322 322 322 323 323 323 323 323 322 322 321 321 320 320 319 319 320 320 319 319 319 319 319 319 319 319 320 321 321 321 321 320 319 319 320 320 319 319 319 318 317 316 316 315 314 314 313
302 302 302 301 301 301 301 301 301 302 302 303 304 305 305 304 304 304 304 304 304 304 303 304 304 305 306 307 309 311 313 314 315 316 317 319 320 320 320 320 321 321 321 321 321 321 321 321 321 321 321 321 320 320 319 319 320 320 320 320 319 319 319 319 320 320 320 320 320 320 319 319 319 319 319 319 319 317 316 316 315 315 314 313 312
302 302 301 301 301 301 301 301 301 302 302 303 303 304 304 304 304 303 303 303 303 303 303 303 303 303 303 304 304 305 305 306 307 308 309 312 314 316 317 318 319 320 320 320 321 321 320 320 319 320 320 320 320 320 320 320 320 321 321 320 320 319 319 319 319 319 319 319 319 319 318 318 318 319 318 318 318 317 316 316 315 314 313 312 311
303 302 301 301 301 301 301 301 301 302 302 302 303 303 303 303 303 302 302 302 302 301 301 302 302 302 302 302 303 303 303 304 304 305 305 305 307 307 308 310 311 313 314 315 316 318 319 319 319 319 318 318 319 319 320 320 321 322 322 321 320 320 319 319 319 318 318 318 318 318 317 317 317 318 318 318 318 317 315 316 316 313 311 310 310
303 303 302 301 301 301 301 301 302 301 302 302 302 302 302 301 301 301 301 301 300 300 300 300 300 301 301 301 302 302 302 303 303 303 303 304 304 304 304 305 305 306 307 308 310 312 314 317 318 318 318 318 317 317 318 320 321 322 322 322 321 320 320 319 319 319 319 319 318 317 316 316 316 317 318 318 318 317 316 316 316 313 311 309 309
302 302 301 301 300 300 300 301 301 301 301 301 301 301 301 300 300 300 300 300 300 300 300 300 300 300 300 300 301 301 301 301 301 302 302 302 303 303 303 303 304 304 305 306 306 308 309 312 314 316 317 318 317 317 316 318 320 322 322 322 321 321 320 320 320 319 319 318 317 316 316 316 316 317 317 318 318 318 317 316 316 313 311 309 309
301 301 300 301 300 300 300 300 300 300 300 300 300 300 300 299 299 299 299 299 299 300 300 300 300 300 300 300 300 300 300 300 300 301 301 301 301 302 302 303 303 303 303 304 304 305 306 307 308 309 312 314 316 317 317 316 317 319 320 321 321 321 320 320 319 319 319 318 317 316 316 316 316 316 316 317 318 318 318 316 315 313 311 310 308
301 300 300 301 300 300 300 300 300 300 300 300 299 299 299 299 299 299 299 299 299 299 299 299 299 299 299 300 300 300 300 300 300 300 300 300 301 301 301 302 302 302 302 303 303 303 304 304 305 305 307 308 311 314 316 316 316 316 318 319 320 320 320 320 320 319 319 318 317 316 315 315 315 315 316 317 318 318 317 316 314 313 311 310 309
300 300 300 300 300 300 300 299 299 299 299 299 299 299 299 298 298 298 298 298 299 299 299 299 299 299 299 299 299 299 299 299 299 299 299 300 300 300 300 301 301 301 301 302 302 302 302 303 303 304 305 306 307 309 312 315 317 317 317 318 318 318 318 319 319 318 318 318 317 315 315 315 315 315 315 317 318 316 315 314 313 312 310 309 309
300 300 300 299 299 299 299 299 299 299 299 299 299 298 298 298 298 298 298 298 298 298 298 298 298 298 298 298 298 298 298 298 298 298 299 299 299 299 299 300 300 300 300 301 301 301 301 301 302 302 303 305 307 307 308 311 314 316 318 318 318 317 316 317 318 318 318 318 316 315 315 315 315 316 316 317 316 314 313 313 312 310 309 309 309
299 299 299 299 299 298 298 299 299 299 299 299 298 298 298 298 297 297 298 297 297 298 298 298 297 297 297 298 297 298 298 297 297 298 298 298 298 298 298 298 298 298 298 299 299 299 299 300 300 301 302 303 306 308 309 310 311 314 317 317 317 316 316 316 317 318 317 316 315 314 314 315 315 315 316 315 314 313 312 311 310 309 309 308 307
299 299 299 299 299 298 299 298 298 299 299 298 298 298 298 297 297 297 297 296 296 297 297 297 297 297 297 297 297 297 297 297 297 296 296 296 296 296 296 297 297 297 297 297 297 297 298 298 299 299 300 301 302 305 308 311 312 314 315 317 317 315 315 316 316 315 314 315 315 313 313 314 313 312 312 312 311 310 310 309 308 308 307 306 304
298 298 298 298 298 298 298 298 298 298 298 298 298 298 297 297 297 296 296 296 296 296 296 296 297 297 297 297 296 296 296 296 296 296 296 295 295 295 295 295 296 296 296 296 296 296 296 297 297 298 299 299 300 301 303 307 310 312 312 314 315 314 314 315 314 312 312 312 312 311 312 311 310 309 309 309 308 307 307 306 305 304 303 303 302
298 298 298 298 298 298 298 298 298 298 298 298 298 297 297 297 297 296 296 296 295 296 296 296 296 296 296 296 296 296 296 296 296 296 296 295 295 295 295 295 295 295 295 295 295 296 296 296 296 297 297 298 299 299 300 302 306 309 309 309 310 311 312 313 311 310 310 308 306 307 308 307 306 307 307 307 306 305 304 303 302 301 301 301 300
298 298 298 298 298 298 298 298 298 298 298 298 297 297 297 297 297 296 296 296 295 295 295 295 296 296 296 296 296 296 296 296 296 296 296 296 296 296 296 295 295 295 295 295 295 295 295 295 296 296 297 297 298 299 300 300 302 305 307 307 306 307 308 307 305 306 307 305 303 303 304 304 304 305 304 304 304 303 302 301 300 300 300 299 299
298 298 298 298 298 298 298 298 298 298 297 297 298 298 297 297 297 296 296 296 296 295 295 295 296 296 296 296 296 296 296 296 296 296 296 296 296 296 296 296 295 296 296 295 295 295 295 295 296 296 296 297 298 299 300 300 300 303 306 307 306 306 306 304 302 304 308 307 303 302 302 301 300 301 301 300 300 299 299 299 299 299 299 298 298
298 298 298 298 298 298 298 298 298 297 297 297 298 298 297 297 297 296 296 296 296 295 295 295 296 296 296 296 296 296 296 296 296 295 295 295 295 295 295 295 296 295 295 295 295 295 295 295 295 295 296 296 297 298 299 300 301 303 305 307 307 306 305 303 303 305 307 306 302 300 300 299 298 297 297 296 295 296 297 298 298 298 297 297 297
298 298 298 298 298 298 298 298 298 298 297 297 298 298 297 297 297 297 297 297 296 296 296 296 296 296 297 296 296 296 296 295 295 294 294 294 294 294 294 295 295 294 294 294 294 294 294 295 295 295 295 296 297 298 299 299 301 303 305 306 306 306 305 304 305 306 305 302 300 298 297 296 297 298 297 296 296 297 298 298 297 297 297 297 297
Wind_Speed
10 13 18 21 25 26 28 30 29 27 26 26 27 28 26 26 28 30 30 29 28 27 25 23 22 21 21 19 17 15 14 13 12 11 11 10 9 8 6 6 7 6 5 5 5 4 4 4 4 4 3 3 4 5 6 7 6 5 4 2 3 6 10 12 13 14 15 14 12 11 10 10 9 7 7 7 7 7 6 6 7 8 8 9 9
8 12 16 23 27 28 29 30 32 33 32 32 32 31 27 26 29 31 30 30 31 31 30 28 26 25 23 20 19 18 17 15 14 13 12 10 8 6 6 6 7 7 6 5 4 4 3 4 5 5 5 5 6 7 6 6 7 6 4 4 5 7 8 11 14 11 9 9 9 8 6 7 9 8 8 7 6 5 5 5 5 5 5 5 7
7 9 13 22 27 28 29 30 33 36 36 34 33 32 29 28 29 30 31 30 30 31 30 29 27 26 24 21 20 19 18 17 15 14 12 10 8 5 5 6 7 8 8 6 6 5 5 5 6 6 7 7 7 7 5 5 6 5 4 5 7 9 8 10 10 7 9 11 8 5 2 4 6 8 10 9 7 6 5 5 4 4 4 4 6
9 9 10 17 24 26 27 28 29 31 31 31 33 31 29 30 31 32 31 31 30 29 28 27 26 23 21 20 20 19 18 18 17 15 14 12 9 6 6 6 8 9 9 8 7 7 7 6 6 7 8 8 7 6 5 5 4 4 5 5 8 10 10 8 6 7 14 12 4 2 2 3 2 2 7 10 9 9 8 6 6 6 7 7 7
11 11 10 12 17 22 26 28 26 27 30 34 35 32 30 31 33 33 32 31 30 29 27 25 23 21 21 23 23 22 21 21 20 18 16 13 10 7 6 7 8 9 8 7 7 7 7 6 6 7 7 8 7 6 5 5 3 4 4 4 7 9 10 9 7 8 12 9 4 3 2 2 2 4 4 7 9 11 10 9 8 8 8 7 7
10 11 10 11 14 20 25 26 25 26 30 35 35 33 32 32 34 33 32 31 30 28 25 22 22 23 27 29 27 25 23 22 22 20 17 15 12 10 8 9 10 10 8 7 7 6 6 5 5 6 6 7 6 6 6 5 5 5 4 5 6 7 8 10 10 9 8 6 5 4 5 4 6 7 4 3 7 10 12 11 10 9 9 8 7
9 10 10 10 12 17 21 23 25 27 30 33 33 32 31 32 35 33 31 31 30 27 23 22 23 26 29 30 28 26 23 21 21 19 17 16 14 12 12 12 11 10 9 8 7 6 5 5 6 8 8 7 7 7 7 7 6 6 4 5 6 5 6 9 11 10 9 7 6 4 6 9 12 9 4 4 3 5 9 12 11 9 9 8 8
11 11 10 11 14 19 21 22 25 29 31 32 33 32 31 33 35 33 30 31 29 26 23 24 25 27 29 29 27 25 22 22 22 20 18 16 15 13 12 12 9 8 9 9 8 7 6 7 8 10 10 9 8 9 9 8 8 7 6 5 5 5 5 8 11 10 9 9 9 9 7 10 10 5 6 9 5 2 5 8 9 9 10 9 8
14 13 12 13 18 25 29 28 27 31 34 34 35 34 32 33 34 32 32 32 29 26 25 25 26 28 29 29 26 24 23 23 23 21 19 18 16 14 11 10 9 10 11 10 10 9 8 9 10 11 11 10 9 9 9 7 7 8 8 7 7 7 7 7 9 9 10 12 12 12 12 11 8 6 7 11 7 4 3 3 7 10 10 10 9
14 14 13 16 22 25 28 30 30 35 38 38 38 36 33 33 33 32 33 33 29 27 27 27 28 29 30 29 27 25 24 25 24 22 20 19 17 14 11 11 11 11 12 11 10 10 9 10 12 12 11 10 9 9 9 7 7 8 8 8 8 9 9 8 9 10 10 12 14 14 14 13 9 6 6 9 10 7 5 5 7 8 9 10 11
13 12 11 16 22 22 24 26 28 32 35 36 37 36 35 34 32 32 33 32 30 29 29 29 30 30 29 28 28 27 27 28 27 23 21 20 19 17 14 13 13 13 12 11 9 9 10 11 14 13 12 11 11 11 11 10 9 9 9 9 9 9 9 8 10 10 10 10 12 13 15 16 13 9 10 11 11 9 7 5 7 10 10 11 12
11 10 9 11 14 16 19 22 25 29 31 33 34 34 34 33 30 30 32 31 31 30 30 29 30 29 28 28 28 29 29 29 27 24 22 21 21 20 18 16 15 14 14 12 11 9 10 13 15 15 14 14 14 13 13 13 12 11 11 11 10 10 10 10 11 10 8 8 9 11 13 14 13 13 14 12 13 17 15 8 8 11 9 9 13
10 9 9 9 9 12 17 21 24 27 29 31 32 31 32 31 30 30 31 31 31 31 29 29 29 28 28 29 29 29 29 27 26 24 23 22 22 20 17 16 15 15 15 14 12 10 11 13 14 15 15 13 13 14 14 14 13 13 13 12 12 11 11 11 11 10 8 8 8 9 10 11 12 14 14 11 15 21 19 12 11 10 8 10 12
10 10 12 11 10 12 17 20 22 23 25 27 28 29 29 29 30 29 28 29 30 29 28 28 27 26 26 28 29 29 27 26 25 24 23 23 21 19 17 15 13 13 14 14 13 12 12 13 14 15 15 13 13 13 13 13 13 14 14 14 13 12 13 14 13 12 10 9 9 9 9 10 13 14 13 13 18 21 20 16 13 9 10 11 9
10 10 12 12 12 14 16 18 19 20 22 24 25 25 25 26 28 27 26 26 28 27 26 27 25 23 26 29 28 27 26 24 24 23 22 21 19 18 17 15 13 12 13 14 13 13 12 12 13 15 15 13 13 12 12 13 13 15 15 15 14 15 16 17 17 16 15 14 13 12 12 11 12 14 14 16 20 21 21 21 18 11 7 6 5
10 10 10 10 12 14 15 16 17 18 21 21 21 22 21 23 26 25 24 26 27 26 26 26 23 23 26 28 27 26 24 24 23 21 19 19 19 18 17 15 14 14 13 13 12 12 13 13 14 14 15 14 13 12 12 13 14 16 16 16 17 17 18 18 17 17 17 18 18 18 17 15 13 14 16 17 18 17 18 19 20 16 10 4 3
9 8 8 8 11 14 15 16 15 17 20 20 19 19 20 21 23 23 21 23 24 22 23 23 21 22 26 28 27 26 23 22 22 20 18 19 19 18 17 17 17 15 13 12 11 11 13 15 14 15 15 14 13 14 15 16 16 17 17 17 17 17 17 16 15 15 15 16 18 20 20 18 16 15 16 17 16 16 16 17 18 20 18 10 4
6 6 6 7 10 12 12 13 13 13 16 17 16 16 18 19 21 21 19 20 21 20 21 20 18 21 27 28 27 24 21 21 21 19 18 19 20 19 19 19 17 15 13 13 12 12 14 15 15 15 15 14 15 16 17 17 17 18 18 18 17 16 15 14 13 13 13 13 15 18 19 19 18 17 16 15 15 16 17 18 20 21 21 17 11
5 4 4 4 5 7 7 7 6 7 9 11 12 12 14 15 16 16 16 17 18 18 20 19 19 23 27 27 25 21 20 20 19 18 18 19 20 20 20 19 17 15 14 15 15 15 15 15 14 14 14 14 15 16 16 16 16 17 18 17 15 14 14 14 14 14 14 14 14 16 18 18 18 18 17 14 12 12 14 19 23 23 21 21 20
2 3 4 4 4 3 2 2 4 4 6 7 8 8 9 10 12 12 12 14 15 17 19 19 22 26 27 25 22 20 21 20 17 18 18 18 20 21 20 20 18 16 16 17 17 17 16 15 14 14 13 14 15 16 16 16 16 16 17 17 15 14 15 16 15 14 13 14 15 15 15 16 16 16 15 13 11 9 10 16 24 27 24 23 23
5 6 7 7 9 10 10 9 10 9 9 8 7 7 7 8 11 11 11 13 15 17 19 21 25 28 27 24 22 21 21 20 18 18 18 19 21 22 20 19 18 17 18 18 17 17 17 16 16 15 14 15 16 17 17 16 17 17 17 17 16 15 15 14 13 12 11 12 14 14 14 13 13 13 13 11 10 9 9 13 22 27 28 25 22
6 6 6 6 8 12 14 14 14 14 14 13 12 11 9 11 14 14 14 13 13 16 18 21 25 25 23 23 21 20 20 20 20 18 18 21 23 22 20 19 18 18 19 17 16 17 17 16 16 16 15 15 16 17 16 16 17 17 16 15 14 14 13 13 12 12 10 10 10 11 12 10 10 11 12 11 11 10 10 13 21 26 27 24 19
6 5 4 5 9 13 15 16 16 16 18 19 19 19 18 15 15 16 15 11 7 8 9 10 15 18 21 23 22 21 21 22 21 19 20 22 23 22 20 19 18 19 18 16 15 17 17 16 17 17 16 16 16 15 15 16 16 15 15 15 14 13 12 12 11 11 10 9 8 8 9 9 8 9 12 13 12 12 12 16 22 24 23 21 18
7 6 5 8 12 15 15 14 14 15 17 19 19 20 20 17 14 16 15 9 9 14 15 15 16 17 18 21 22 22 24 23 20 19 20 21 22 21 20 18 17 18 18 16 14 15 16 17 19 18 17 16 15 14 15 15 14 13 15 16 15 13 12 11 10 10 9 7 7 7 7 8 7 8 10 12 12 13 14 17 19 20 19 18 18
8 7 8 10 11 13 13 12 13 13 14 14 15 16 17 16 15 14 13 9 10 14 13 11 14 16 17 18 18 19 21 21 19 18 18 19 20 19 18 17 16 17 17 16 15 15 16 18 19 18 17 16 15 15 15 15 13 12 15 16 14 13 12 10 10 9 7 6 6 6 6 6 6 7 8 8 11 14 15 16 17 17 16 16 17
9 8 9 8 8 10 11 11 11 13 15 15 16 18 18 16 15 12 10 9 9 13 15 14 15 19 21 21 19 18 17 17 18 18 17 17 18 17 16 15 15 16 17 18 17 16 17 18 18 17 17 17 16 15 14 14 14 13 13 14 13 12 11 11 11 11 9 7 7 6 6 6 7 8 7 7 8 11 14 15 15 15 15 16 17
8 8 8 8 9 9 9 8 8 11 14 14 15 16 15 15 16 13 10 9 9 11 14 14 16 19 22 23 23 20 17 15 15 17 18 18 18 16 14 15 15 15 16 17 18 17 17 18 18 18 17 17 17 16 13 14 16 14 12 12 13 13 12 12 13 13 12 10 9 9 8 7 7 9 9 8 8 9 12 14 14 14 15 15 14
10 9 9 9 10 8 9 10 11 14 16 14 14 14 13 13 15 14 12 11 11 11 11 12 14 18 20 21 21 19 19 16 15 17 19 18 17 16 14 16 15 14 15 16 16 17 17 17 18 19 18 17 17 17 16 15 16 16 14 14 14 14 13 13 14 14 14 12 10 11 11 10 10 10 9 9 9 10 12 14 14 14 14 14 13
12 11 9 8 8 8 10 14 17 19 19 17 16 15 14 14 14 14 14 13 11 10 10 10 12 15 18 20 19 19 20 17 15 16 17 16 16 15 15 16 14 13 14 14 14 17 19 17 17 19 19 19 19 19 18 17 18 17 17 16 16 16 15 14 13 13 14 13 11 11 12 12 12 12 11 10 10 11 13 14 13 13 12 11 12
11 10 8 8 9 10 14 18 20 22 21 20 18 16 15 15 15 15 15 13 11 11 11 12 12 12 15 16 17 18 18 16 14 15 16 15 13 12 12 12 12 11 11 11 12 17 19 16 15 17 18 19 21 21 20 19 19 19 19 18 17 17 17 16 15 14 14 14 14 13 13 14 14 14 14 13 12 12 13 13 13 13 12 10 9
9 8 7 7 10 13 16 19 21 22 23 22 20 19 18 18 17 16 14 12 11 12 12 11 9 8 9 9 11 12 12 12 13 13 14 14 11 9 8 7 7 8 9 9 11 14 16 15 14 14 14 15 18 20 20 19 20 20 20 19 19 18 18 17 16 16 16 15 15 15 15 16 16 17 17 17 16 15 14 13 13 15 16 13 11
8 8 8 8 10 13 16 18 20 23 24 24 25 25 25 24 22 21 20 18 18 18 17 13 10 6 6 6 6 6 6 7 8 9 10 11 10 9 7 5 4 5 7 8 8 9 11 11 12 12 11 12 13 16 18 18 18 19 20 19 19 19 19 19 18 18 18 17 17 18 18 18 18 18 18 19 18 16 15 14 13 14 14 13 13
7 8 8 9 10 14 17 18 20 22 23 24 29 30 29 27 27 28 28 28 28 28 27 25 21 15 10 8 6 5 5 5 5 6 7 9 10 10 8 6 4 2 3 5 6 7 8 9 10 10 11 11 12 14 15 16 17 18 18 19 20 20 20 20 20 19 19 19 19 20 21 21 20 19 20 21 21 19 17 15 14 13 13 13 13
7 8 8 9 13 18 20 21 20 19 21 26 30 30 29 28 28 29 30 30 30 31 32 32 30 27 22 18 14 11 8 7 5 4 4 4 6 8 7 5 5 5 5 6 7 8 9 9 10 11 12 12 13 13 14 15 16 17 18 19 19 20 20 20 20 19 19 19 20 21 22 22 22 21 22 23 23 22 20 18 16 15 14 14 13
7 8 9 11 15 20 22 23 22 20 22 27 29 29 30 29 29 29 29 29 30 30 31 32 31 30 28 26 24 22 19 16 13 10 8 5 3 2 3 3 5 7 9 10 11 10 8 9 10 11 13 14 14 15 15 15 16 16 17 18 19 20 20 21 20 20 20 20 21 22 22 22 22 23 24 24 25 25 23 20 18 16 16 15 14
8 10 13 16 19 20 20 22 24 25 25 26 27 29 30 29 29 29 29 29 30 30 30 30 29 29 28 27 26 25 24 22 20 19 18 15 12 9 7 5 6 8 10 12 14 13 10 9 9 10 12 14 14 15 16 17 16 16 16 18 19 20 20 21 22 21 21 22 22 23 23 22 22 22 23 25 26 25 22 20 18 18 17 16 15
11 15 16 18 20 19 19 21 24 25 24 24 25 28 29 29 29 29 29 29 30 30 29 28 27 27 26 25 24 23 23 22 20 20 20 19 16 14 12 10 7 7 8 9 11 12 11 11 10 10 10 12 13 14 15 16 16 16 17 17 18 20 21 22 23 22 22 23 23 23 22 21 21 21 22 24 26 25 22 20 19 18 17 16 15
11 13 14 15 17 19 20 23 26 26 24 24 25 26 29 29 28 28 30 30 29 28 27 26 26 24 24 24 23 21 21 21 21 20 19 18 16 14 13 12 10 10 11 11 12 12 12 12 13 13 12 12 13 14 15 17 17 17 17 17 18 19 21 22 23 23 23 23 23 22 21 21 21 20 21 22 24 24 23 20 18 18 18 17 16
10 13 15 16 18 21 23 25 27 25 23 24 26 27 29 29 28 28 29 29 27 26 25 24 23 21 21 21 21 21 21 21 21 20 19 18 17 15 14 13 13 14 14 14 15 15 14 13 13 14 15 15 16 15 15 16 17 18 18 19 19 20 21 22 22 22 23 23 22 21 20 20 20 19 20 22 23 23 21 19 18 19 20 19 18
12 14 18 19 21 23 25 25 25 24 22 24 26 29 30 28 27 29 29 27 25 23 22 21 20 19 19 19 19 20 20 20 20 19 18 18 17 17 16 16 16 16 16 16 16 17 17 16 15 15 16 17 19 20 18 17 17 18 19 20 20 22 23 23 22 23 24 23 22 20 19 19 20 19 19 21 22 21 19 19 20 20 19 19 18
14 16 20 22 23 24 24 24 23 23 23 24 26 29 29 27 27 28 27 24 22 20 19 18 18 18 18 18 18 18 18 18 18 18 17 17 17 17 17 17 17 17 17 17 17 17 18 17 17 17 17 17 18 19 21 22 20 19 20 20 21 23 24 24 23 23 23 23 21 21 20 19 19 19 20 21 21 19 19 21 20 17 15 16 17
16 18 20 22 22 23 23 23 22 23 23 23 25 28 28 27 28 27 23 20 19 18 17 17 17 17 17 16 16 15 15 15 15 15 15 14 15 15 15 16 16 17 17 17 17 17 17 17 16 16 16 16 17 17 19 22 23 23 22 21 22 23 23 23 23 23 24 23 22 21 21 20 19 19 19 20 20 21 21 20 18 15 14 15 16
17 18 19 21 22 22 23 22 21 21 21 21 23 26 26 26 26 23 19 17 17 16 15 15 15 15 15 15 14 13 13 13 13 13 12 12 12 12 12 14 15 15 15 15 16 17 18 19 18 16 16 16 15 15 16 19 22 25 25 23 23 23 22 22 23 23 24 24 23 22 22 20 18 18 20 21 22 22 21 20 18 17 15 15 16
17 17 18 21 21 20 21 21 19 19 19 19 20 22 23 22 20 17 16 16 15 14 13 14 14 14 13 13 12 12 12 13 13 12 12 12 13 13 13 13 14 15 15 16 17 18 19 21 21 19 18 17 15 13 13 16 21 25 26 24 23 23 22 22 23 24 24 24 24 25 24 21 19 20 22 23 22 20 18 17 17 17 16 16 17
17 18 19 20 20 19 19 18 18 18 17 17 17 18 19 18 16 15 17 16 13 11 11 12 13 13 12 12 12 12 13 13 13 14 14 14 15 15 14 14 15 16 16 17 18 19 20 20 21 21 20 17 16 15 13 15 19 22 24 24 23 24 23 22 23 23 23 25 26 26 25 23 22 22 22 21 19 17 17 17 17 18 18 17 16
17 18 18 18 18 18 17 16 16 16 16 15 15 15 15 14 13 13 15 15 12 10 10 11 12 12 12 13 14 14 14 14 14 14 15 15 15 15 15 15 15 16 17 18 18 18 20 21 21 21 21 19 16 14 15 15 16 17 19 20 20 20 20 22 24 23 24 26 27 28 27 24 23 21 21 21 21 20 20 19 18 17 16 14 14
16 15 16 16 16 16 14 14 15 14 13 13 13 13 13 12 12 12 14 14 12 11 11 11 11 12 13 14 15 15 14 15 15 15 15 15 15 15 15 15 16 16 17 18 18 18 19 21 21 21 22 21 18 14 13 14 15 16 15 14 15 16 16 17 17 18 21 24 24 26 26 24 22 21 21 21 22 22 21 19 16 15 14 14 14
14 14 14 13 14 13 12 12 12 12 11 10 10 11 12 12 13 14 15 15 14 13 12 12 11 12 13 13 14 15 15 16 16 15 15 15 15 15 15 15 15 15 16 17 18 18 18 19 19 20 21 22 21 17 13 12 15 18 17 14 14 16 18 18 16 15 15 17 17 19 22 23 23 23 23 22 22 21 20 18 17 16 15 15 14
13 12 12 11 11 10 9 9 10 10 9 8 7 9 12 13 14 16 16 15 15 14 13 12 12 13 14 14 15 16 16 16 16 16 16 15 15 15 15 15 14 13 14 16 17 17 17 17 17 18 19 21 22 20 15 12 12 16 18 17 15 15 18 19 18 14 12 15 18 21 23 23 20 18 18 19 19 20 21 20 19 17 16 15 13
15 12 11 10 9 7 7 6 6 7 8 7 6 8 11 12 13 15 15 14 13 13 12 12 12 13 13 14 15 16 16 16 17 18 18 18 17 15 15 15 14 14 14 15 16 16 17 17 17 17 16 17 20 21 18 15 13 13 16 18 18 16 16 15 14 14 14 17 23 24 23 21 18 17 17 17 17 20 22 21 19 18 16 14 13
13 12 11 10 8 6 5 4 3 5 8 7 5 6 10 11 12 13 13 12 11 11 11 11 11 11 11 12 13 14 16 17 17 17 18 18 18 17 16 15 14 15 17 17 18 17 16 16 16 17 17 17 17 17 16 15 14 12 14 17 18 16 16 15 15 16 19 22 25 24 21 20 21 22 23 22 21 20 21 22 20 18 15 14 12
Wind_Direction
156 117 118 124 119 115 110 116 132 141 156 170 176 182 177 169 167 164 164 168 171 174 177 181 180 180 184 184 185 183 179 176 169 160 153 149 140 127 128 138 142 144 146 153 159 161 157 153 154 158 171 164 150 166 167 160 167 170 165 147 121 130 126 125 131 126 113 106 105 110 114 116 120 135 140 138 144 156 173 177 188 194 193 204 202
132 108 123 123 114 114 117 128 142 150 165 179 182 184 180 174 172 170 169 170 173 175 178 180 179 180 182 181 181 182 183 181 173 162 151 145 144 135 134 136 135 140 139 135 141 150 142 132 144 157 165 161 159 171 169 162 171 171 164 148 129 133 132 135 140 128 114 119 116 107 104 98 94 102 109 109 123 138 153 159 171 184 194 212 204
120 111 124 125 121 122 129 140 149 156 170 180 182 184 182 179 177 175 175 175 176 176 176 176 177 179 179 180 182 181 183 183 173 163 156 149 147 146 147 142 132 132 127 118 122 128 123 123 134 143 146 148 158 169 164 155 164 164 160 153 143 138 130 136 146 139 134 133 120 109 101 82 77 80 84 82 94 113 119 132 153 162 161 171 179
121 122 128 132 130 129 135 145 150 155 166 176 182 184 183 181 181 180 179 178 177 174 173 172 172 177 179 179 177 169 167 171 166 163 160 152 148 147 142 135 132 130 122 113 112 110 112 123 130 133 136 142 152 159 154 148 153 162 163 158 152 145 134 133 134 137 144 142 120 88 94 93 90 85 78 71 80 98 99 99 120 140 149 157 161
131 133 138 141 136 134 141 147 150 156 165 176 183 184 184 182 182 183 182 179 176 172 171 172 173 174 169 163 159 152 148 152 153 154 156 152 150 157 158 155 150 141 130 124 120 111 110 116 125 129 130 137 145 146 142 135 137 165 174 169 163 156 148 142 133 142 154 158 156 144 119 95 170 175 118 68 68 87 94 95 106 128 144 153 154
133 133 140 144 135 135 143 150 154 161 170 177 182 185 185 184 182 184 184 178 175 173 172 175 178 172 161 154 151 148 147 150 152 152 155 153 148 149 151 155 155 149 140 133 131 126 117 112 120 126 126 132 138 136 136 134 138 153 162 167 168 168 161 149 145 155 162 157 150 176 227 220 167 154 142 69 65 79 91 100 104 117 131 136 140
131 127 135 139 134 136 144 155 160 165 171 176 182 185 185 184 184 187 185 178 175 174 175 180 180 171 163 159 155 154 152 153 156 154 153 153 150 143 135 136 143 146 144 139 141 145 136 123 121 127 131 134 138 136 132 130 135 143 151 161 166 174 174 159 153 156 155 146 134 150 224 203 163 147 148 144 104 73 89 98 100 111 124 125 125
128 130 144 145 149 154 157 163 166 166 169 175 180 184 184 183 185 188 183 177 177 176 177 180 177 171 166 162 160 159 156 156 159 155 149 151 151 143 135 134 136 140 144 140 137 145 153 146 132 133 135 131 131 135 131 126 127 135 140 148 160 166 175 171 162 159 156 148 129 123 150 174 170 167 144 132 124 98 95 93 95 103 112 117 116
139 150 160 159 168 171 166 164 167 167 169 174 178 184 185 182 184 186 181 178 178 175 175 176 175 173 168 163 160 159 158 159 160 154 150 152 151 148 149 146 137 137 145 143 130 127 144 153 146 142 139 131 129 134 133 128 125 128 133 139 150 156 161 169 163 161 162 151 138 132 137 154 174 187 142 116 109 129 122 105 111 105 102 107 111
154 162 167 172 179 178 166 162 167 170 172 174 177 183 187 185 184 185 181 179 177 174 173 172 173 173 168 164 160 158 159 159 158 155 154 156 154 154 159 160 153 146 148 150 137 125 128 145 151 148 142 133 129 132 134 134 131 127 127 129 135 144 151 159 155 153 156 152 150 150 148 150 156 169 153 120 109 115 118 133 135 119 109 108 113
164 168 176 183 181 175 164 161 168 172 175 176 178 184 188 189 186 183 181 179 174 174 174 172 172 172 169 165 161 158 157 156 156 156 158 158 154 149 147 150 157 160 157 154 147 133 123 134 144 143 135 124 119 125 129 130 128 123 122 122 125 134 142 148 148 148 152 156 164 169 165 163 164 176 182 154 128 128 132 133 132 125 117 116 123
168 172 181 187 179 169 165 167 171 175 178 179 180 185 189 192 189 183 181 179 175 174 175 174 174 173 171 167 162 159 158 157 158 158 160 160 154 147 141 137 142 155 162 157 150 141 126 131 139 134 126 120 117 121 125 127 126 124 124 123 123 126 130 134 138 142 150 155 168 181 178 175 177 182 184 167 145 145 144 134 135 131 115 118 130
170 175 178 185 183 175 175 176 176 178 181 182 182 186 189 192 191 185 182 180 178 177 176 175 174 173 172 169 165 163 161 161 161 159 160 161 158 155 152 144 138 144 155 156 153 148 133 133 141 136 129 125 124 126 127 130 132 130 126 122 122 126 129 132 134 136 138 136 145 162 170 176 180 178 179 170 150 148 143 133 139 137 123 130 133
174 181 178 182 189 187 184 181 179 180 182 183 184 187 188 191 192 188 185 183 182 181 178 175 175 176 176 174 170 167 166 166 164 160 160 162 161 162 163 163 155 147 151 154 154 153 140 134 139 139 136 134 133 134 134 134 136 134 127 120 118 123 126 124 121 120 120 121 125 130 135 152 166 172 178 170 155 151 148 142 139 127 122 135 138
182 188 181 178 186 190 187 182 180 180 182 185 186 188 187 188 188 187 186 186 184 183 180 177 176 178 179 177 175 172 170 167 162 160 163 163 163 163 165 169 170 160 156 156 158 158 149 138 136 140 141 140 140 140 140 141 142 137 128 119 117 122 123 117 112 110 108 107 109 109 113 128 151 163 170 167 160 157 156 152 144 130 122 129 134
187 188 182 177 183 191 190 185 181 179 183 188 187 186 185 184 186 187 187 187 185 183 182 179 177 179 180 178 177 175 169 163 160 160 164 167 166 165 163 162 163 160 156 159 164 164 158 146 136 139 144 145 145 146 144 145 147 142 132 122 119 123 123 117 114 113 109 106 104 103 106 116 138 155 160 162 161 160 163 162 154 147 144 130 119
189 182 176 176 184 191 192 189 183 176 182 190 187 182 181 181 185 186 186 185 184 183 181 178 178 181 180 179 178 172 163 159 159 160 165 169 169 167 162 158 158 161 164 167 169 168 164 154 141 140 146 148 148 145 142 141 143 144 138 128 124 126 125 120 119 118 116 113 108 103 103 111 129 148 159 168 173 174 176 178 173 164 155 145 136
183 176 171 178 189 193 192 193 189 177 178 184 182 178 178 181 186 186 184 182 183 184 180 179 183 183 179 177 174 166 157 155 158 162 167 170 170 167 162 160 159 162 170 175 174 168 162 158 150 145 147 149 148 147 144 144 144 145 143 135 132 135 132 127 127 126 125 123 116 108 104 107 120 133 144 159 175 188 198 198 189 179 169 161 154
172 163 151 159 182 190 191 194 190 170 167 172 171 170 173 178 181 182 181 180 180 180 176 178 186 183 176 172 167 158 152 154 158 164 170 170 169 167 163 162 161 162 169 172 172 167 160 159 157 154 153 154 154 155 155 155 152 149 147 141 138 141 136 131 128 125 127 130 126 117 109 108 117 125 130 134 146 171 197 201 191 187 188 180 165
134 90 65 49 55 79 94 56 57 89 129 148 149 151 160 169 172 172 174 174 175 176 176 179 184 181 174 167 161 154 153 156 161 168 172 170 167 168 166 163 162 163 167 167 168 168 165 164 163 159 158 157 159 161 161 159 153 146 144 142 139 138 133 130 129 124 125 131 132 129 120 115 119 125 130 131 135 148 173 191 191 189 191 188 174
56 56 54 46 45 46 44 47 57 76 95 104 108 117 133 151 153 152 162 172 176 177 178 179 181 178 171 162 157 156 155 159 166 170 172 169 167 169 168 164 163 165 167 169 172 174 171 169 165 162 160 158 158 158 156 154 148 141 140 139 138 137 133 133 135 133 132 132 132 133 129 126 126 126 132 138 144 151 159 182 191 188 185 184 179
70 70 75 76 63 51 49 56 65 72 76 76 81 84 96 126 138 141 152 167 178 181 181 182 179 172 161 155 153 154 155 161 168 170 169 169 169 169 166 163 164 167 170 173 175 174 170 168 166 165 166 164 161 160 159 157 151 147 146 147 148 144 139 139 143 146 148 145 139 133 126 128 132 131 138 145 149 154 159 172 183 183 180 180 183
70 61 65 83 80 69 61 62 66 70 73 74 77 76 77 101 132 145 147 137 122 124 129 145 148 141 142 148 148 151 158 165 172 173 171 169 169 168 166 164 165 169 173 174 171 170 169 170 170 170 171 170 167 167 167 165 163 160 158 158 157 155 149 149 153 156 158 161 161 149 129 127 136 139 144 150 151 155 159 163 170 176 177 179 187
55 46 53 65 69 68 65 64 68 75 80 81 82 81 78 90 122 152 162 148 110 103 90 82 95 109 129 142 144 151 161 167 173 176 173 170 168 168 167 165 166 170 174 173 172 173 173 172 173 174 176 177 175 175 174 175 177 177 173 165 160 161 164 167 170 166 164 170 178 174 151 137 142 147 149 154 156 158 163 164 165 171 176 180 187
64 56 64 65 65 68 69 75 82 87 92 92 93 95 94 97 115 145 165 162 136 133 129 115 117 130 139 142 146 155 159 163 171 175 172 169 168 168 169 168 168 171 174 175 177 179 177 175 176 179 181 181 180 179 181 184 183 178 177 172 166 169 175 180 185 180 169 168 172 173 171 165 166 165 161 162 162 162 165 169 171 174 179 183 185
87 80 78 75 74 75 77 89 103 106 104 106 108 112 116 116 116 128 146 145 137 145 149 137 131 140 147 151 157 161 160 164 173 173 171 173 171 171 173 173 173 174 177 181 184 186 188 185 184 185 183 181 182 183 187 191 186 175 175 178 176 176 177 180 188 188 180 175 170 171 181 188 195 196 189 183 178 172 169 170 174 179 183 187 187
79 80 83 78 72 69 71 81 93 94 95 104 113 117 124 122 113 114 125 129 129 143 149 141 131 137 149 156 158 164 174 179 176 171 170 173 174 175 180 180 181 184 186 189 192 194 197 199 197 193 186 184 187 190 191 190 188 184 183 185 184 182 179 177 182 186 186 187 184 186 195 204 212 214 206 200 199 191 178 170 167 169 176 180 183
66 60 64 70 69 64 62 62 61 66 74 83 91 95 100 104 104 107 109 108 115 130 143 146 139 139 151 158 160 172 186 186 179 172 169 171 175 179 183 183 187 195 198 200 204 202 201 206 209 205 198 193 194 197 197 192 189 190 192 192 190 191 190 183 181 184 188 194 196 193 199 210 218 222 219 210 209 205 194 181 168 162 165 167 166
75 66 58 64 71 67 61 56 52 55 62 67 71 76 81 85 90 96 98 102 112 120 125 133 135 140 153 161 169 182 188 184 180 175 169 169 176 181 187 191 196 203 205 208 211 207 205 209 215 214 209 204 203 204 203 199 196 195 196 197 196 199 202 198 193 194 198 205 208 204 206 214 219 222 225 222 216 209 204 197 187 178 175 172 168
75 76 70 66 69 65 60 57 52 51 55 61 67 73 76 76 80 86 93 104 116 119 123 129 131 142 155 164 173 180 181 179 178 175 174 174 174 176 184 195 205 212 214 214 211 206 207 213 216 216 215 213 212 212 209 205 204 202 201 201 202 203 206 207 205 206 209 211 213 214 218 223 225 226 228 231 228 220 215 213 211 209 209 206 196
66 71 70 61 62 61 58 56 54 53 56 59 64 70 72 71 71 72 77 91 103 105 112 119 120 130 143 156 170 174 176 179 177 173 176 180 179 173 169 183 202 207 206 203 199 201 207 215 220 220 220 219 217 216 213 210 208 206 204 205 207 208 208 210 212 215 218 218 218 220 223 225 228 229 229 232 235 232 229 227 224 222 225 230 228
53 53 51 46 51 55 54 55 56 57 59 62 67 70 70 70 68 66 69 75 78 80 82 85 86 93 108 121 139 150 159 176 182 183 188 193 194 186 174 174 190 198 199 197 196 200 207 214 220 221 218 215 212 210 210 209 208 208 209 211 214 216 217 219 223 225 228 231 233 233 231 228 229 230 230 231 231 231 232 232 229 225 223 225 227
49 51 51 46 48 49 47 49 54 58 61 68 73 74 73 74 73 72 73 73 71 70 69 66 65 68 74 81 88 106 121 130 150 173 188 199 204 202 196 194 195 212 232 231 229 227 226 229 229 227 225 221 215 212 213 216 218 219 222 224 225 228 232 234 235 234 235 238 241 241 239 235 233 234 233 230 227 225 223 224 224 223 220 217 217
53 53 51 51 57 56 49 45 48 55 65 73 78 79 77 77 75 73 73 70 66 65 63 60 61 62 64 66 67 74 84 84 93 121 147 181 203 209 210 218 240 260 279 290 282 264 252 252 249 245 244 240 235 231 227 227 230 230 231 233 235 237 240 242 241 238 238 242 243 242 242 241 238 236 234 229 224 220 216 215 217 217 217 216 214
60 63 59 58 63 62 56 51 47 49 60 70 77 79 78 74 72 69 67 65 62 60 58 58 58 57 58 59 60 63 63 60 60 61 55 44 15 297 267 267 278 279 280 283 283 279 270 266 266 263 257 254 249 245 242 241 241 239 238 239 239 240 242 243 242 241 242 246 248 249 250 247 242 238 235 230 223 217 213 211 212 213 213 211 209
67 70 66 62 63 64 64 61 55 53 57 63 70 76 75 71 68 65 62 60 58 54 51 52 51 50 50 51 53 55 53 51 53 53 50 47 40 24 7 347 311 290 278 268 267 273 278 276 274 271 268 266 260 253 250 248 246 244 243 241 241 242 243 244 244 244 246 249 251 253 253 250 244 239 235 229 222 216 211 209 210 211 209 207 206
77 76 72 68 68 72 73 70 67 64 64 65 69 72 71 66 63 60 57 54 52 48 45 43 42 42 42 42 43 46 44 42 43 43 41 40 41 36 27 18 356 324 311 302 296 295 291 283 273 267 269 274 273 266 259 253 248 245 244 243 244 244 244 246 246 245 247 250 250 250 248 245 241 237 232 226 220 215 210 207 207 205 202 201 201
89 90 85 77 73 75 74 71 70 69 67 68 69 69 67 62 58 56 54 51 46 43 41 39 36 34 34 35 35 36 35 33 32 30 27 24 25 25 19 14 5 349 339 336 334 327 314 299 288 279 273 273 277 276 269 259 251 246 246 248 248 247 245 244 244 244 245 246 245 244 242 239 236 233 228 221 218 215 209 203 203 202 198 197 196
88 91 87 80 74 72 69 67 66 65 64 65 66 65 64 59 55 54 52 49 46 44 43 41 38 33 31 31 31 30 30 28 24 21 17 13 11 8 2 358 354 347 339 333 332 331 327 322 313 302 291 281 277 276 272 265 256 250 250 253 252 250 246 243 242 242 244 244 243 242 239 235 232 228 222 217 215 213 209 205 206 202 196 195 193
82 83 80 75 69 65 63 62 61 62 64 68 68 66 63 59 55 53 49 46 46 46 46 45 41 36 31 28 26 26 25 24 19 14 11 7 3 359 354 350 347 344 339 333 331 330 326 322 319 316 308 297 287 277 270 267 263 256 252 252 251 250 249 247 245 242 242 241 239 237 233 230 228 223 216 212 209 208 209 208 204 202 201 197 189
85 85 80 74 67 63 62 60 60 61 64 67 68 65 61 58 55 53 49 46 45 43 43 42 40 37 33 28 26 24 20 18 13 7 3 0 358 355 353 349 344 341 338 334 333 333 330 324 320 319 316 310 303 291 276 267 266 264 259 253 251 251 250 248 245 241 240 237 234 232 231 229 227 220 213 209 204 201 206 208 206 207 208 196 182
83 84 82 78 72 68 66 62 60 61 60 61 64 62 58 55 52 49 46 44 42 39 38 38 37 36 34 30 27 24 20 17 12 8 6 2 356 353 351 348 345 342 341 340 338 338 337 334 331 329 325 316 309 305 294 277 266 262 260 256 255 257 255 249 241 236 234 232 228 229 230 229 225 217 208 204 199 195 199 205 206 203 198 187 177
83 84 85 83 78 72 70 65 61 60 58 59 63 62 58 54 50 44 38 35 33 32 32 32 32 33 33 31 30 28 27 24 18 16 17 14 8 3 359 357 354 350 348 348 346 344 344 342 339 338 341 333 315 305 303 292 276 264 257 254 256 257 254 247 240 234 231 229 225 223 223 220 216 208 201 197 195 195 198 202 201 195 189 181 173
90 92 93 92 87 80 77 72 67 64 63 62 64 63 60 55 47 35 25 22 22 23 26 28 29 30 31 33 34 33 31 28 21 17 16 13 10 6 3 3 2 360 358 355 352 350 349 348 345 340 342 347 340 323 306 295 286 274 262 256 254 252 246 240 237 235 232 228 223 218 215 210 201 196 194 194 194 195 195 193 189 183 176 169 165
95 97 97 96 92 89 84 78 73 73 72 66 62 60 58 51 39 23 16 14 12 16 27 33 34 35 35 35 32 27 22 19 15 12 9 6 3 359 358 359 357 357 357 355 354 353 350 350 349 345 341 343 347 342 323 297 284 275 266 259 254 252 244 233 229 230 231 230 225 215 205 198 191 188 186 183 180 180 178 174 169 166 163 161 162
97 98 97 96 95 93 88 80 75 76 76 69 58 53 51 44 32 24 21 19 19 26 34 37 37 37 34 28 21 18 15 12 10 8 4 2 2 360 359 358 356 353 352 350 349 349 348 346 345 345 342 337 336 340 335 317 297 283 274 264 257 256 249 234 227 226 224 222 214 204 196 191 183 179 177 172 166 163 162 160 159 160 161 163 166
97 94 92 91 91 89 81 73 74 76 73 65 55 49 48 42 35 32 29 27 31 37 36 35 33 29 24 18 14 11 8 4 2 2 360 358 358 357 355 354 353 350 348 347 344 342 341 341 339 338 338 334 330 327 328 326 316 301 289 276 269 269 260 246 244 241 226 210 196 188 189 187 178 173 174 171 164 160 159 156 154 156 158 158 160
102 95 92 87 86 86 77 69 73 72 60 53 51 47 41 36 34 32 28 28 34 35 32 30 27 20 15 11 6 2 360 358 357 357 356 354 353 352 348 346 345 343 341 340 338 335 335 335 333 331 331 330 328 322 315 319 318 306 295 281 268 260 254 257 272 271 239 210 191 180 175 170 169 172 172 166 161 159 157 152 150 151 153 152 152
114 106 100 94 88 86 78 68 66 60 47 45 52 47 34 31 32 28 23 24 25 23 21 21 16 11 7 2 358 357 356 357 355 353 351 349 347 346 343 337 334 333 332 331 329 327 329 328 324 323 324 325 325 322 311 300 300 296 286 276 265 261 262 264 264 256 229 203 194 186 173 164 163 166 164 160 157 153 149 148 149 151 151 149 150
125 119 112 110 104 94 85 73 59 44 34 34 47 44 32 29 31 27 21 18 18 16 15 12 6 3 358 353 353 355 354 353 352 349 345 340 337 338 337 332 330 329 326 325 322 318 318 319 316 314 313 313 316 318 310 291 280 277 273 269 267 269 271 261 238 222 209 192 183 178 172 169 165 157 151 153 155 152 149 148 148 150 150 150 149
136 129 126 123 114 103 91 72 49 25 20 24 38 39 30 30 31 24 15 10 8 4 1 0 358 355 353 354 355 354 351 348 346 344 342 339 336 335 334 333 332 330 325 319 315 310 308 309 310 310 307 300 299 308 307 289 275 268 263 263 265 263 255 244 227 211 197 183 173 167 163 162 159 155 156 158 161 162 158 154 153 155 156 156 152